Location: Bonny Doon Airfield
(37.0704°N, 122.1252°W)
Time: 08:52:40
(UTC-07:00)

Vanguard 2 - Pass Details

Date: 12 December 2017
Orbit: 553 x 2939 km, 32.9° (Epoch: 22 July)

Event Time Altitude Azimuth Distance (km) Brightness Sun altitude
Rises 14:44:50 0° 229° (SW) 4,954 13.3 18.7°
Reaches altitude 10° 14:49:08 10° 220° (SW) 3,530 13.6 18.1°
Maximum altitude 14:56:09 30° 163° (SSE) 1,733 9.9 17.2°
Drops below altitude 10° 15:00:55 10° 103° (ESE) 2,346 9.8 16.6°
Sets 15:03:12 0° 91° (E) 3,080 10.2 16.3°
